TimeCST,TemperatureF,Dew PointF,Humidity,Sea Level PressureIn,VisibilityMPH,Wind Direction,Wind SpeedMPH,Gust SpeedMPH,PrecipitationIn,Events,Conditions,WindDirDegrees,DateUTC
12:53 AM,5.0,-0.0,80,30.22,10.0,NNW,3.5,-,N/A,,Clear,340,2013-01-01 06:53:00
1:53 AM,1.9,-2.0,83,30.22,10.0,Calm,Calm,-,N/A,,Clear,0,2013-01-01 07:53:00
2:53 AM,1.0,-2.9,83,30.24,10.0,NNW,3.5,-,N/A,,Clear,330,2013-01-01 08:53:00
3:53 AM,1.0,-2.0,87,30.24,10.0,Calm,Calm,-,N/A,,Clear,0,2013-01-01 09:53:00
4:53 AM,-2.9,-7.1,82,30.25,10.0,Calm,Calm,-,N/A,,Clear,0,2013-01-01 10:53:00
5:53 AM,-2.0,-6.0,83,30.27,10.0,NNW,3.5,-,N/A,,Clear,330,2013-01-01 11:53:00
6:53 AM,-4.0,-7.1,87,30.29,10.0,Calm,Calm,-,N/A,,Clear,0,2013-01-01 12:53:00
7:53 AM,-4.0,-9.9,76,30.31,9.0,Calm,Calm,-,N/A,,Clear,0,2013-01-01 13:53:00
8:53 AM,1.9,-2.9,80,30.30,10.0,NNW,4.6,-,N/A,,Clear,340,2013-01-01 14:53:00
9:53 AM,6.1,-0.9,73,30.29,10.0,NNW,6.9,-,N/A,,Clear,330,2013-01-01 15:53:00
10:53 AM,8.1,-0.9,67,30.27,10.0,NW,5.8,-,N/A,,Clear,310,2013-01-01 16:53:00
11:53 AM,10.9,1.0,64,30.25,10.0,NW,6.9,-,N/A,,Clear,310,2013-01-01 17:53:00
12:53 PM,12.9,1.0,59,30.24,10.0,West,5.8,-,N/A,,Clear,280,2013-01-01 18:53:00
1:53 PM,14.0,-0.0,54,30.23,10.0,WNW,6.9,-,N/A,,Clear,300,2013-01-01 19:53:00
2:53 PM,15.1,-0.0,51,30.22,10.0,West,4.6,-,N/A,,Clear,270,2013-01-01 20:53:00
3:53 PM,15.1,-0.0,51,30.22,10.0,WNW,3.5,-,N/A,,Clear,290,2013-01-01 21:53:00
4:53 PM,10.9,-0.0,61,30.22,10.0,Calm,Calm,-,N/A,,Clear,0,2013-01-01 22:53:00
5:53 PM,8.1,-0.0,70,30.22,10.0,Calm,Calm,-,N/A,,Clear,0,2013-01-01 23:53:00
6:53 PM,8.1,1.0,73,30.23,10.0,West,3.5,-,N/A,,Clear,270,2013-01-02 00:53:00
7:53 PM,8.1,-0.0,70,30.22,10.0,Calm,Calm,-,N/A,,Clear,0,2013-01-02 01:53:00
8:53 PM,7.0,-0.9,70,30.21,10.0,Calm,Calm,-,N/A,,Clear,0,2013-01-02 02:53:00
9:48 PM,6.8,-2.2,67,30.13,10.0,Calm,Calm,-,N/A,,Mostly Cloudy,0,2013-01-02 03:48:00
9:53 PM,8.1,-0.9,67,30.19,10.0,Calm,Calm,-,N/A,,Mostly Cloudy,0,2013-01-02 03:53:00
10:53 PM,10.9,-0.0,61,30.19,10.0,Calm,Calm,-,N/A,,Overcast,0,2013-01-02 04:53:00
11:53 PM,12.0,1.9,64,30.18,10.0,Variable,5.8,-,N/A,,Overcast,0,2013-01-02 05:53:00